AE7QG Weather Reports


time (UTC)temp
C
wind
direction
speed
KPH
gust
KPH
rain 1hr
cm
rain 24hr
cm
rain mn
cm
humidity
%
barometer
mb
20220930153025 7 312 0.0 0.0 0.00 0.38 0.00 93 1019.3
20220930151538 7 312 0.0 0.0 0.00 0.38 0.00 93 1019.3
20220930150019 7 312 0.0 0.0 0.00 0.38 0.00 93 1019.5
20220930144523 6 312 0.0 0.0 0.00 0.38 0.00 94 1019.2
20220930143018 6 312 0.0 0.0 0.00 0.38 0.00 94 1019.4
20220930141516 5 312 0.0 0.0 0.00 0.38 0.00 93 1019.1
20220930140022 5 312 0.0 0.0 0.00 0.43 0.00 94 1019.1
20220930134533 5 312 0.0 0.0 0.00 0.43 0.00 93 1019.0
20220930133012 5 312 0.0 0.0 0.00 0.43 0.00 93 1018.8
20220930131511 5 312 0.0 0.0 0.00 0.43 0.00 93 1018.7
20220930130025 5 312 0.0 0.0 0.00 0.43 0.00 93 1018.5
20220930124507 5 312 0.0 0.0 0.00 0.43 0.00 93 1018.5
20220930123007 5 312 0.0 0.0 0.00 0.43 0.00 93 1018.2
20220930121511 5 312 0.0 0.0 0.00 0.43 0.00 93 1018.0
20220930120010 5 312 0.0 0.0 0.00 0.43 0.00 93 1018.0
20220930114621 6 312 0.0 0.0 0.00 0.43 0.00 93 1017.9
20220930113058 6 312 0.0 0.0 0.00 0.43 0.00 93 1017.8
20220930111559 6 312 0.0 0.0 0.00 0.43 0.00 93 1017.7
20220930110144 6 312 0.0 0.0 0.00 0.43 0.00 92 1017.5
20220930104609 6 312 0.0 0.0 0.00 0.43 0.00 93 1017.4
20220930103054 6 312 0.0 0.0 0.00 0.43 0.00 92 1017.5
20220930101602 6 312 0.0 0.0 0.00 0.43 0.00 92 1017.2
20220930100047 6 312 0.0 0.0 0.00 0.43 0.00 92 1016.9
20220930094547 7 312 0.0 0.0 0.00 0.43 0.00 92 1016.6
20220930093046 7 312 0.0 0.0 0.00 0.43 0.00 91 1016.4
20220930091550 7 312 0.0 0.0 0.00 0.43 0.00 91 1016.2
20220930090038 7 312 0.0 0.0 0.00 0.43 0.00 90 1016.2
20220930084557 8 312 0.0 0.0 0.00 0.43 0.00 90 1016.2
20220930083041 8 312 0.0 0.0 0.00 0.43 0.00 91 1016.1
20220930081534 8 312 0.0 0.0 0.00 0.43 0.00 90 1015.9
20220930080034 8 312 0.0 0.0 0.00 0.43 0.00 89 1016.0
20220930074533 8 312 0.0 0.0 0.00 0.43 0.00 88 1016.0
20220930073037 8 312 0.0 0.0 0.00 0.43 0.00 88 1016.0
20220930071547 8 312 0.0 0.0 0.00 0.43 0.00 88 1015.9
20220930070038 8 312 0.0 0.0 0.00 0.43 0.00 90 1016.0
20220930064532 8 312 0.0 0.0 0.00 0.43 0.00 90 1016.0
20220930063025 8 312 0.0 0.0 0.00 0.43 0.00 90 1015.8
20220930061523 8 312 1.6 3.2 0.00 0.43 0.00 90 1015.6
20220930060033 8 312 0.0 0.0 0.00 0.43 0.43 89 1015.6
20220930054529 8 312 0.0 0.0 0.00 0.43 0.43 89 1015.3
20220930053057 9 312 0.0 0.0 0.00 0.43 0.43 88 1015.4
20220930051513 10 312 0.0 0.0 0.00 0.43 0.43 86 1015.3
20220930050011 10 312 0.0 3.2 0.00 0.43 0.43 85 1015.4
20220930044510 11 312 0.0 0.0 0.00 0.43 0.43 85 1015.4
20220930043010 11 312 0.0 0.0 0.00 0.43 0.43 84 1015.5
20220930041509 11 312 0.0 0.0 0.00 0.43 0.43 86 1015.5
20220930040008 11 312 0.0 0.0 0.00 0.43 0.43 82 1015.3
20220930034514 10 312 0.0 0.0 0.00 0.43 0.43 86 1015.1
20220930033005 10 312 0.0 0.0 0.00 0.43 0.43 86 1015.0
20220930031503 10 312 0.0 0.0 0.00 0.43 0.43 85 1014.7
20220930030002 10 312 0.0 0.0 0.00 0.43 0.43 85 1014.5
20220930024600 10 312 0.0 0.0 0.00 0.43 0.43 86 1014.4
20220930023058 10 312 0.0 0.0 0.00 0.43 0.43 85 1014.1
20220930021605 10 312 0.0 0.0 0.00 0.43 0.43 84 1014.1
20220930020109 11 312 0.0 0.0 0.00 0.43 0.43 81 1014.0
20220930014555 12 312 0.0 0.0 0.00 0.43 0.43 78 1014.1
20220930013054 12 275 0.0 0.0 0.00 0.43 0.43 78 1013.9
20220930011550 12 187 0.0 0.0 0.00 0.43 0.43 74 1013.7
20220930010049 13 187 0.0 0.0 0.00 0.43 0.43 75 1013.5
20220930004554 13 187 0.0 0.0 0.00 0.43 0.43 73 1013.3
20220930003100 14 187 0.0 0.0 0.00 0.43 0.43 72 1013.3
20220930001547 15 187 0.0 0.0 0.00 0.43 0.43 70 1013.3
20220930000059 15 187 0.0 0.0 0.00 0.43 0.43 69 1013.3
20220929234547 15 187 0.0 0.0 0.00 0.43 0.43 65 1013.3
20220929233051 15 188 0.0 0.0 0.00 0.43 0.43 63 1013.3
20220929231552 15 188 0.0 3.2 0.00 0.43 0.43 65 1013.2
20220929230049 15 180 1.6 6.4 0.00 0.43 0.43 64 1013.2
20220929224543 15 11 0.0 4.8 0.00 0.43 0.43 66 1013.0
20220929223048 16 78 0.0 4.8 0.00 0.43 0.43 64 1013.0
20220929221545 16 295 0.0 4.8 0.00 0.43 0.43 60 1012.6
20220929220038 16 101 0.0 4.8 0.00 0.43 0.43 58 1012.3
20220929214537 16 180 0.0 1.6 0.00 0.43 0.43 65 1012.3
20220929213046 16 202 0.0 6.4 0.00 0.43 0.43 59 1012.3
20220929211540 16 175 3.2 9.7 0.00 0.43 0.43 58 1012.3
20220929210056 16 260 0.0 0.0 0.00 0.43 0.43 65 1012.4
20220929204534 15 162 0.0 0.0 0.00 0.43 0.43 69 1012.3
20220929203038 15 162 0.0 0.0 0.00 0.43 0.43 66 1012.5
20220929201539 16 148 1.6 8.0 0.00 0.43 0.43 62 1012.5
20220929200044 16 141 0.0 3.2 0.00 0.43 0.43 68 1012.4
20220929194530 15 142 0.0 6.4 0.00 0.43 0.43 72 1012.5
20220929193029 15 245 0.0 1.6 0.00 0.43 0.43 78 1012.4
20220929191547 15 245 0.0 3.2 0.00 0.43 0.43 78 1012.3
20220929190033 15 350 0.0 3.2 0.00 0.43 0.43 81 1012.3
20220929184537 13 30 0.0 4.8 0.03 0.43 0.43 87 1012.3
20220929183034 13 49 1.6 8.0 0.08 0.43 0.43 90 1012.2
20220929181537 11 200 0.0 1.6 0.10 0.43 0.43 93 1012.4
20220929180026 11 200 1.6 6.4 0.10 0.43 0.43 91 1012.5
20220929174551 11 173 0.0 12.9 0.10 0.41 0.41 89 1012.2
20220929173030 12 211 0.0 20.9 0.30 0.36 0.36 86 1012.1
20220929171518 13 222 0.0 3.2 0.28 0.33 0.33 92 1011.4
20220929170023 13 223 1.6 8.0 0.28 0.33 0.33 92 1011.1
20220929164521 13 65 1.6 4.8 0.25 0.30 0.30 91 1010.0
20220929163016 14 204 1.6 4.8 0.00 0.05 0.05 86 1011.2
20220929161515 14 293 0.0 0.0 0.00 0.05 0.05 88 1010.0
20220929160015 13 293 0.0 3.2 0.00 0.05 0.05 89 1009.9
20220929154532 13 292 0.0 0.0 0.00 0.05 0.05 92 1010.1